INTELSAT 28 (IS-28)

Last updated on Tue Sep 22 2026 00:03:12 GMT+0000 (Coordinated Universal Time)

1 37392U 11016A 26264.34026334 -.00000228 00000+0 00000+0 0 9999 2 37392 2.0469 81.3219 0003669 102.4259 267.3135 1.00271770 54256
UTC large
Height (km)
Speed (km/s)
/
Latitude / Longitude
Inclination (degrees)
Orbital Period (minutes)
Azimuth
Elevation
Range (km)
Doppler Factor

Next 0 passes for location: London (51.5072 / 0.1276)

No passes found over London.
INTELSAT 28 (IS-28)